World > North America > United States > Michigan
Hourly Weather in Harbor Beach, MichiganHarbor Beach, Michigan Hourly Weather

Harbor Beach, MI Hourly Weather

Hourly Weather Harbor Beach, MichiganHourly Weather in Harbor Beach, MI
Lat: 43.85N, Lon: 82.65W  ICAO: KP58
Web Search

Our weather pages are very print friendly and they make great conversation starters.

Feedback

Harbor Beach Hourly Weather

36 Hour Weather Scroll   °F Click to change Harbor Beach hourly weather to Imperial units.Click to change Harbor Beach hourly weather to Metric units. °C
Currently, Clear, temperature is 21°F-6°C, dew point 15°F-9°C, humidity 78%. Wind direction is SSE at 9 mph14 km/h with visibility of N/A mi0 km. Barometric pressure is 30.06 in1018 mb.

Jan 16
1:00 PM

Jan 16
2:00 PM

Jan 16
3:00 PM

Jan 16
4:00 PM

Jan 16
5:00 PM

Jan 16
6:00 PM

Jan 16
7:00 PM

Jan 16
8:00 PM

Jan 16
9:00 PM

Jan 16
10:00 PM

Jan 16
11:00 PM

Jan 17
MIDNIGHT

Jan 17
1:00 AM

Jan 17
2:00 AM

Jan 17
3:00 AM

Jan 17
4:00 AM

Jan 17
5:00 AM

Jan 17
6:00 AM

Jan 17
7:00 AM

Jan 17
8:00 AM

Jan 17
9:00 AM

Jan 17
10:00 AM

Jan 17
11:00 AM

Jan 17
NOON

Jan 17
1:00 PM

Jan 17
2:00 PM

Jan 17
3:00 PM

Jan 17
4:00 PM

Jan 17
5:00 PM

Jan 17
6:00 PM

Jan 17
7:00 PM

Jan 17
8:00 PM

Jan 17
9:00 PM

Jan 17
10:00 PM

Jan 17
11:00 PM

Jan 18
MIDNIGHT
Clear Clear Clear Clear Clear Mostly Clear Mostly Clear Mostly Clear Mostly Clear Mostly Clear Mostly Clear Mostly Cloudy Mostly Cloudy Mostly Cloudy Mostly Cloudy Mostly Cloudy Mostly Cloudy Cloudy Cloudy Cloudy Cloudy Cloudy Cloudy Cloudy Cloudy Cloudy Cloudy Cloudy Cloudy Cloudy Cloudy Cloudy Cloudy Cloudy Cloudy Cloudy
Clear Clear Clear Clear Clear Mostly Clear Mostly Clear Mostly Clear Mostly Clear Mostly Clear Mostly Clear Mostly Cloudy Mostly Cloudy Mostly Cloudy Mostly Cloudy Mostly Cloudy Mostly Cloudy Cloudy Cloudy Cloudy Cloudy Cloudy Cloudy Cloudy Cloudy Cloudy Cloudy Cloudy Cloudy Cloudy Cloudy Cloudy Cloudy Cloudy Cloudy Cloudy
24°F-4°C 24°F-4°C 24°F-4°C 24°F-4°C 23°F-5°C 23°F-5°C 22°F-6°C 22°F-6°C 22°F-6°C 22°F-6°C 22°F-6°C 22°F-6°C 22°F-6°C 22°F-6°C 23°F-5°C 23°F-5°C 23°F-5°C 24°F-4°C 24°F-4°C 25°F-4°C 25°F-4°C 26°F-3°C 27°F-3°C 27°F-3°C 28°F-2°C 28°F-2°C 28°F-2°C 28°F-2°C 27°F-3°C 27°F-3°C 26°F-3°C 25°F-4°C 25°F-4°C 24°F-4°C 23°F-5°C 22°F-6°C
- - - - - - - - - - - - - - - - - - - - - - - - - - - - - - - - - - - -
0% 0% 0% 0% 0% 0% 0% 0% 0% 0% 0% 0% 0% 7% 7% 7% 7% 7% 7% 1% 1% 1% 1% 1% 1% 10% 10% 10% 10% 10% 10% 13% 13% 13% 13% 13%
12°F-11°C 12°F-11°C 12°F-11°C 12°F-11°C 12°F-11°C 12°F-11°C 12°F-11°C 12°F-11°C 11°F-12°C 11°F-12°C 11°F-12°C 12°F-11°C 12°F-11°C 13°F-11°C 13°F-11°C 14°F-10°C 15°F-9°C 16°F-9°C 17°F-8°C 17°F-8°C 18°F-8°C 18°F-8°C 18°F-8°C 18°F-8°C 18°F-8°C 18°F-8°C 17°F-8°C 17°F-8°C 17°F-8°C 16°F-9°C 16°F-9°C 16°F-9°C 16°F-9°C 16°F-9°C 16°F-9°C 15°F-9°C
60% 60% 60% 60% 62% 62% 65% 65% 62% 62% 62% 65% 65% 68% 65% 68% 71% 71% 74% 71% 74% 71% 68% 68% 66% 66% 63% 63% 65% 63% 65% 68% 68% 71% 74% 74%
SSE SSE SE SE SE SE ESE ESE ESE ESE E NE NNE SE SSW N N N N N N N NNW NNW NW NW NW NW NW NW NW NW NW NW NW NW
5 mph 5 mph 4 mph 4 mph 4 mph 4 mph 4 mph 4 mph 3 mph 3 mph 3 mph 4 mph 4 mph 4 mph 12 mph 12 mph 12 mph 16 mph 16 mph 16 mph 13 mph 13 mph 13 mph 12 mph 12 mph 12 mph 10 mph 10 mph 10 mph 15 mph 15 mph 15 mph 13 mph 13 mph 13 mph 10 mph
10 mi16 km 10 mi16 km 10 mi16 km 10 mi16 km 10 mi16 km 10 mi16 km 10 mi16 km 10 mi16 km 10 mi16 km 10 mi16 km 10 mi16 km 10 mi16 km 10 mi16 km 10 mi16 km 10 mi16 km 10 mi16 km 10 mi16 km 10 mi16 km 10 mi16 km 10 mi16 km 10 mi16 km 10 mi16 km 10 mi16 km 10 mi16 km 10 mi16 km 10 mi16 km 10 mi16 km 10 mi16 km 10 mi16 km 10 mi16 km 10 mi16 km 10 mi16 km 10 mi16 km 10 mi16 km 10 mi16 km 10 mi16 km
Hour (EST)
Weather
Clouds
Temperature
Precip. Type
POP
Dewpoint
Humidity
Wind Direction
Wind Speed
Visibility
POP = Probability of Precipitation. ** Indicates missing data/values from model statistics.

24 Hour Forecast

Today - Mostly sunny early in the morning then becoming partly cloudy. Highs in the lower 20s. South winds up to 15 mph becoming 5 to 10 mph early in the evening. Lowest wind chill readings 7 below to 17 below zero in the morning.
Tonight - Not as cold. Partly cloudy in the evening then becoming cloudy. Near steady temperature around 18. Southeast winds up to 5 mph shifting to the northwest with gusts to around 20 mph after midnight.

48 Hour Forecast API Feed


Sun, Jan 16
1:00 pm

Sun, Jan 16
2:00 pm

Sun, Jan 16
3:00 pm

Sun, Jan 16
4:00 pm

Sun, Jan 16
5:00 pm

Sun, Jan 16
6:00 pm

Sun, Jan 16
7:00 pm

Sun, Jan 16
8:00 pm

Sun, Jan 16
9:00 pm

Sun, Jan 16
10:00 pm

Sun, Jan 16
11:00 pm

Mon, Jan 17
Midnight

Mon, Jan 17
1:00 am

Mon, Jan 17
2:00 am

Mon, Jan 17
3:00 am

Mon, Jan 17
4:00 am

Mon, Jan 17
5:00 am

Mon, Jan 17
6:00 am

Mon, Jan 17
7:00 am

Mon, Jan 17
8:00 am

Mon, Jan 17
9:00 am

Mon, Jan 17
10:00 am

Mon, Jan 17
11:00 am

Mon, Jan 17
Noon

Mon, Jan 17
1:00 pm

Mon, Jan 17
2:00 pm

Mon, Jan 17
3:00 pm

Mon, Jan 17
4:00 pm

Mon, Jan 17
5:00 pm

Mon, Jan 17
6:00 pm

Mon, Jan 17
7:00 pm

Mon, Jan 17
8:00 pm

Mon, Jan 17
9:00 pm

Mon, Jan 17
10:00 pm

Mon, Jan 17
11:00 pm

Tue, Jan 18
Midnight

Tue, Jan 18
1:00 am

Tue, Jan 18
2:00 am

Tue, Jan 18
3:00 am

Tue, Jan 18
4:00 am

Tue, Jan 18
5:00 am

Tue, Jan 18
6:00 am

Tue, Jan 18
7:00 am

Tue, Jan 18
8:00 am

Tue, Jan 18
9:00 am

Tue, Jan 18
10:00 am

Tue, Jan 18
11:00 am

Tue, Jan 18
Noon
SunnySunnySunnySunnySunnyClearClearClearClearClearClearClearClearClearClearPartly CloudyCloudyPartly CloudyPartly CloudyPartly CloudyOvercastOvercastBlowing SnowOvercastBlowing SnowOvercastBlizzardBlizzardBlizzardBlowing SnowBlowing SnowBlizzardBlowing SnowCloudyBlowing SnowCloudyBlowing SnowPartly CloudyPartly CloudyPartly CloudyPatchy Light SnowCloudyCloudyCloudyCloudyCloudyLight SnowOvercast
Sunny Sunny Sunny Sunny Sunny Clear Clear Clear Clear Clear Clear Clear Clear Clear Clear Partly cloudy Cloudy Partly cloudy Partly cloudy Partly cloudy Overcast Overcast Blowing snow Overcast Blowing snow Overcast Blizzard Blizzard Blizzard Blowing snow Blowing snow Blizzard Blowing snow Cloudy Blowing snow Cloudy Blowing snow Partly cloudy Partly cloudy Partly cloudy Patchy light snow Cloudy Cloudy Cloudy Cloudy Cloudy Light snow Overcast
22°F
-6°C
24°F
-5°C
25°F
-4°C
25°F
-4°C
25°F
-4°C
23°F
-5°C
22°F
-5°C
22°F
-5°C
23°F
-5°C
23°F
-5°C
23°F
-5°C
23°F
-5°C
24°F
-5°C
24°F
-4°C
25°F
-4°C
25°F
-4°C
26°F
-3°C
27°F
-3°C
28°F
-3°C
28°F
-2°C
28°F
-2°C
29°F
-2°C
29°F
-2°C
29°F
-2°C
29°F
-2°C
28°F
-3°C
27°F
-3°C
27°F
-3°C
28°F
-2°C
28°F
-2°C
28°F
-2°C
27°F
-3°C
26°F
-3°C
25°F
-4°C
24°F
-5°C
23°F
-5°C
22°F
-5°C
22°F
-6°C
21°F
-6°C
21°F
-6°C
20°F
-6°C
20°F
-7°C
20°F
-7°C
19°F
-7°C
19°F
-7°C
19°F
-7°C
20°F
-7°C
21°F
-6°C
14°F
-10°C
15°F
-9°C
16°F
-9°C
17°F
-9°C
17°F
-8°C
16°F
-9°C
15°F
-9°C
16°F
-9°C
16°F
-9°C
15°F
-9°C
15°F
-9°C
15°F
-9°C
17°F
-9°C
17°F
-8°C
18°F
-8°C
19°F
-7°C
20°F
-7°C
20°F
-7°C
20°F
-6°C
21°F
-6°C
21°F
-6°C
22°F
-6°C
22°F
-6°C
21°F
-6°C
22°F
-6°C
23°F
-5°C
23°F
-5°C
22°F
-5°C
21°F
-6°C
21°F
-6°C
22°F
-6°C
22°F
-6°C
20°F
-7°C
18°F
-8°C
17°F
-8°C
16°F
-9°C
15°F
-9°C
15°F
-10°C
14°F
-10°C
14°F
-10°C
14°F
-10°C
14°F
-10°C
14°F
-10°C
14°F
-10°C
14°F
-10°C
15°F
-10°C
14°F
-10°C
13°F
-11°C
30.03 in
1017 mb
30 in
1016 mb
29.94 in
1014 mb
29.91 in
1013 mb
29.88 in
1012 mb
29.85 in
1011 mb
29.85 in
1011 mb
29.83 in
1010 mb
29.8 in
1009 mb
29.77 in
1008 mb
29.74 in
1007 mb
29.71 in
1006 mb
29.68 in
1005 mb
29.65 in
1004 mb
29.59 in
1002 mb
29.56 in
1001 mb
29.53 in
1000 mb
29.5 in
999 mb
29.5 in
999 mb
29.47 in
998 mb
29.5 in
999 mb
29.5 in
999 mb
29.5 in
999 mb
29.5 in
999 mb
29.5 in
999 mb
29.53 in
1000 mb
29.53 in
1000 mb
29.53 in
1000 mb
29.56 in
1001 mb
29.59 in
1002 mb
29.62 in
1003 mb
29.68 in
1005 mb
29.71 in
1006 mb
29.74 in
1007 mb
29.77 in
1008 mb
29.77 in
1008 mb
29.8 in
1009 mb
29.83 in
1010 mb
29.85 in
1011 mb
29.88 in
1012 mb
29.91 in
1013 mb
29.94 in
1014 mb
29.97 in
1015 mb
30 in
1016 mb
30.03 in
1017 mb
30.06 in
1018 mb
30.06 in
1018 mb
30.09 in
1019 mb
71%70%69%69%72%74%75%75%75%72%71%73%74%75%76%76%75%75%75%74%75%75%74%73%75%84%85%82%76%76%78%79%76%74%74%74%73%74%74%74%75%77%79%81%82%81%77%72%
SSSESSESSESSESSESESESEESEEENENENNENNNNNNNNNNNWNNWNWNWNWNWNWNWNWNWNWNWNWNWNWNWNWNWNWWNWWNWWNWNWNWNW
9 mph
14 km/h
9 mph
14 km/h
10 mph
16 km/h
9 mph
14 km/h
8 mph
13 km/h
6 mph
9 km/h
7 mph
11 km/h
9 mph
14 km/h
7 mph
11 km/h
3 mph
5 km/h
4 mph
6 km/h
4 mph
6 km/h
5 mph
8 km/h
7 mph
11 km/h
11 mph
17 km/h
13 mph
22 km/h
15 mph
23 km/h
17 mph
27 km/h
19 mph
31 km/h
20 mph
32 km/h
21 mph
33 km/h
22 mph
35 km/h
22 mph
36 km/h
23 mph
37 km/h
23 mph
37 km/h
23 mph
37 km/h
23 mph
36 km/h
21 mph
34 km/h
22 mph
35 km/h
22 mph
36 km/h
22 mph
36 km/h
24 mph
39 km/h
24 mph
39 km/h
24 mph
39 km/h
23 mph
36 km/h
21 mph
35 km/h
20 mph
33 km/h
20 mph
32 km/h
19 mph
30 km/h
17 mph
28 km/h
16 mph
26 km/h
14 mph
23 km/h
13 mph
22 km/h
12 mph
19 km/h
11 mph
18 km/h
10 mph
16 km/h
9 mph
15 km/h
8 mph
13 km/h
0%0%0%0%0%0%0%0%0%0%0%0%0%0%0%0%0%0%0%0%0%0%0%0%0%0%0%0%0%0%0%0%0%0%0%0%0%0%0%0%0%0%0%0%0%0%0%0%
6 mi
10 km
6 mi
10 km
6 mi
10 km
6 mi
10 km
6 mi
10 km
6 mi
10 km
6 mi
10 km
6 mi
10 km
6 mi
10 km
6 mi
10 km
6 mi
10 km
6 mi
10 km
6 mi
10 km
6 mi
10 km
6 mi
10 km
6 mi
10 km
6 mi
10 km
6 mi
10 km
6 mi
10 km
6 mi
10 km
6 mi
10 km
6 mi
10 km
1 mi
2 km
6 mi
10 km
1 mi
2 km
6 mi
10 km
0 mi
0 km
0 mi
0 km
0 mi
0 km
1 mi
2 km
1 mi
2 km
0 mi
0 km
1 mi
2 km
6 mi
10 km
1 mi
2 km
6 mi
10 km
1 mi
2 km
6 mi
10 km
6 mi
10 km
6 mi
10 km
6 mi
10 km
6 mi
10 km
6 mi
10 km
6 mi
10 km
6 mi
10 km
6 mi
10 km
6 mi
10 km
6 mi
10 km

Day/Time
Weather
Condition
Temperature
Dew Point
Pressure
Humidity
Wind Direction
Wind Speed
Prob Precip %
Visibility
Prob Precip % = Probability of Precipitation.